Yoder, IN

2:51 PM EST on January 21, 2017 (GMT -0500)
Fort Wayne International Airport

Weather History for KFWA - May, 2014

Change the Weather History Date:

Monday, May 26, 2014

  Actual Average Record
Temperature  
Mean Temperature 71 °F 64 °F  
Max Temperature 87 °F 75 °F 97 °F (1911)
Min Temperature 55 °F 53 °F 35 °F (1961)
Degree Days  
Heating Degree Days 0 4  
Month to date heating degree days 182 175  
Since 1 July heating degree days 6951 6057  
Cooling Degree Days 6 3  
Month to date cooling degree days 46 34  
Year to date cooling degree days 47 42  
Growing Degree Days 21 (Base 50)    
Moisture  
Dew Point 56 °F    
Average Humidity 61    
Maximum Humidity 80    
Minimum Humidity 41    
Precipitation  
Precipitation 0.00 in 0.16 in 1.98 in (1913)
Month to date precipitation 4.28 3.44  
Year to date precipitation 16.25 13.97  
Snow  
Snow 0.00 in 0.00 in 0.00 in (2002)
Month to date snowfall 0.0 0.0  
Since 1 July snowfall 74.7 33.5  
Snow Depth 0.00 in    
Sea Level Pressure  
Sea Level Pressure 30.05 in    
Wind  
Wind Speed 7 mph (SW)    
Max Wind Speed 24 mph    
Max Gust Speed 30 mph    
Visibility 10 miles    
Events      
T = Trace of Precipitation, MM = Missing Value Source: NWS Daily Summary

Daily Weather History Graph

Daily Weather History Graph

Search for Another Location

Airport or City:

Trip Planner

Search our weather history database for the weather conditions in past years. The results will help you decide how hot, cold, wet, or windy it might be!

Date:

Astronomy

May. 26, 2014 Rise Set
Actual Time 6:14 AM EDT 9:01 PM EDT
Civil Twilight 5:41 AM EDT 9:34 PM EDT
Nautical Twilight 5:01 AM EDT 10:15 PM EDT
Astronomical Twilight 4:14 AM EDT 11:01 PM EDT
Moon 4:56 AM EDT (5/26) 7:02 PM EDT (5/26)
Length of Visible Light 15h 52m
Length of Day
14h 47m
Waning Crescent, 5% of the Moon is Illuminated
May 26
Waning Crescent
May 28
New
Jun 5
First Quarter
Jun 13
Full
Jun 19
Last Quarter

Hourly Weather History & Observations

Time (EDT) Temp. Heat Index Dew Point Humidity Pressure Visibility Wind Dir Wind Speed Gust Speed Precip Events Conditions
12:54 AM 60.1 °F - 52.0 °F 75% 30.09 in 10.0 mi Calm Calm - N/A   Scattered Clouds
1:54 AM 62.1 °F - 51.1 °F 67% 30.09 in 10.0 mi Calm Calm - N/A   Partly Cloudy
2:54 AM 60.1 °F - 51.1 °F 72% 30.09 in 10.0 mi SSW 5.8 mph - N/A   Scattered Clouds
3:54 AM 57.9 °F - 51.1 °F 78% 30.09 in 10.0 mi SW 4.6 mph - N/A   Scattered Clouds
4:54 AM 57.0 °F - 50.0 °F 77% 30.09 in 10.0 mi SSW 3.5 mph - N/A   Scattered Clouds
5:54 AM 57.9 °F - 51.1 °F 78% 30.10 in 10.0 mi Calm Calm - N/A   Scattered Clouds
6:54 AM 57.0 °F - 51.1 °F 81% 30.10 in 10.0 mi SSE 3.5 mph - N/A   Mostly Cloudy
7:54 AM 64.0 °F - 55.0 °F 73% 30.11 in 10.0 mi Calm Calm - N/A   Mostly Cloudy
8:54 AM 68.0 °F - 55.9 °F 65% 30.11 in 10.0 mi SSW 8.1 mph - N/A   Mostly Cloudy
9:54 AM 72.0 °F - 55.9 °F 57% 30.11 in 10.0 mi SSW 8.1 mph - N/A   Mostly Cloudy
10:54 AM 75.9 °F - 50.0 °F 40% 30.10 in 10.0 mi SSW 9.2 mph - N/A   Mostly Cloudy
11:54 AM 79.0 °F - 53.1 °F 40% 30.09 in 10.0 mi SW 9.2 mph - N/A   Mostly Cloudy
12:54 PM 82.0 °F 81.7 °F 57.0 °F 42% 30.07 in 10.0 mi West 8.1 mph - N/A   Mostly Cloudy
1:54 PM 84.0 °F 84.0 °F 60.1 °F 44% 30.05 in 10.0 mi WSW 15.0 mph - N/A   Mostly Cloudy
2:54 PM 84.9 °F 84.4 °F 59.0 °F 41% 30.04 in 10.0 mi WSW 11.5 mph - N/A   Mostly Cloudy
3:54 PM 84.9 °F 85.0 °F 61.0 °F 44% 30.01 in 10.0 mi Variable 5.8 mph - N/A   Mostly Cloudy
4:54 PM 86.0 °F 86.1 °F 61.0 °F 43% 29.98 in 10.0 mi West 10.4 mph - N/A   Mostly Cloudy
5:54 PM 86.0 °F 85.7 °F 60.1 °F 41% 29.97 in 9.0 mi WSW 11.5 mph - N/A   Mostly Cloudy
6:54 PM 84.9 °F 84.8 °F 60.1 °F 43% 29.96 in 10.0 mi SW 9.2 mph - N/A   Mostly Cloudy
7:54 PM 82.0 °F 82.7 °F 61.0 °F 49% 29.96 in 10.0 mi SW 5.8 mph - N/A   Mostly Cloudy
8:54 PM 79.0 °F - 62.1 °F 56% 29.95 in 10.0 mi SSW 6.9 mph - N/A   Mostly Cloudy
9:54 PM 78.1 °F - 62.1 °F 58% 29.97 in 10.0 mi SW 9.2 mph - N/A   Mostly Cloudy
10:54 PM 75.2 °F - 62.6 °F 65% 29.99 in 10.0 mi SSW 10.4 mph - N/A   Overcast
11:54 PM 75.9 °F - 62.1 °F 62% 29.98 in 10.0 mi SW 9.2 mph - N/A   Overcast